EW6329 Weather Reports


Display with metric or nautical units.
time (UTC)temp
F
wind
direction
speed
MPH
gust
MPH
rain 1hr
in
rain 24hr
in
rain mn
in
humidity
%
barometer
mb
20260903050015 80 203 0.0 0.0 0.00 0.00 0.00 77 1013.1
20260903044529 80 203 0.0 0.0 0.00 0.00 0.00 76 1013.0
20260903043044 81 203 0.0 0.0 0.00 0.00 0.00 77 1012.9
20260903041602 81 201 0.0 0.0 0.00 0.00 0.00 75 1012.9
20260903040008 81 203 0.0 2.0 0.00 0.00 0.00 74 1013.0
20260903034527 82 200 0.0 0.0 0.00 0.00 0.00 71 1012.9
20260903033032 82 199 0.0 0.0 0.00 0.00 0.00 70 1013.0
20260903031548 83 199 0.0 0.0 0.00 0.00 0.00 69 1013.1
20260903030058 83 199 0.0 0.0 0.00 0.00 0.00 69 1013.1
20260903024508 84 199 0.0 0.0 0.00 0.00 0.00 68 1013.0
20260903023021 84 199 0.0 0.0 0.00 0.00 0.00 67 1012.9
20260903021535 85 199 0.0 0.0 0.00 0.00 0.00 66 1012.8
20260903020054 85 199 0.0 0.0 0.00 0.00 0.00 64 1012.7
20260903014604 86 199 0.0 0.0 0.00 0.00 0.00 64 1012.4
20260903013013 86 199 0.0 0.0 0.00 0.00 0.00 62 1012.2
20260903011528 87 199 0.0 0.0 0.00 0.00 0.00 60 1012.2
20260903010042 88 199 0.0 0.0 0.00 0.00 0.00 60 1012.1
20260903004556 88 199 0.0 0.0 0.00 0.00 0.00 58 1012.0
20260903003008 89 199 0.0 0.0 0.00 0.00 0.00 56 1012.0
20260903001520 90 199 0.0 0.0 0.00 0.00 0.00 56 1012.0
20260903000034 90 199 0.0 0.0 0.00 0.00 0.00 55 1012.1
20260902234559 91 199 0.0 0.0 0.00 0.00 0.00 54 1012.1
20260902233100 92 199 0.0 0.0 0.00 0.00 0.00 53 1012.1
20260902231515 93 199 0.0 0.0 0.00 0.00 0.00 52 1012.2
20260902230023 93 199 0.0 0.0 0.00 0.00 0.00 50 1012.2
20260902224537 94 199 0.0 0.0 0.00 0.00 0.00 50 1012.2
20260902223055 94 199 0.0 1.0 0.00 0.00 0.00 50 1012.3
20260902221605 94 195 0.0 2.0 0.00 0.00 0.00 50 1012.3
20260902220020 94 195 0.0 2.0 0.00 0.00 0.00 48 1012.3
20260902214527 96 355 0.0 2.0 0.00 0.00 0.00 45 1012.3
20260902213039 98 97 0.0 3.0 0.00 0.00 0.00 41 1012.5
20260902211550 96 317 0.0 2.0 0.00 0.00 0.00 42 1012.5
20260902204513 97 317 0.0 2.0 0.00 0.00 0.00 43 1012.7
20260902203024 95 317 0.0 2.0 0.00 0.00 0.00 45 1012.9
20260902201537 96 317 0.0 2.0 0.00 0.00 0.00 46 1013.0
20260902200047 96 317 0.0 2.0 0.00 0.00 0.00 45 1013.2
20260902194604 96 317 0.0 2.0 0.00 0.00 0.00 44 1013.4
20260902193014 95 316 0.0 2.0 0.00 0.00 0.00 47 1013.7
20260902191524 94 316 0.0 2.0 0.00 0.00 0.00 48 1013.9
20260902190041 96 316 0.0 2.0 0.00 0.00 0.00 46 1014.0
20260902184556 95 316 0.0 2.0 0.00 0.00 0.00 46 1014.2
20260902183001 96 316 0.0 3.0 0.00 0.00 0.00 44 1014.4
20260902181513 96 287 0.0 3.0 0.00 0.00 0.00 45 1014.5
20260902180029 95 302 0.0 2.0 0.00 0.00 0.00 48 1014.7
20260902174536 94 327 0.0 2.0 0.00 0.00 0.00 49 1015.0
20260902173050 93 324 0.0 2.0 0.00 0.00 0.00 51 1015.1
20260902171609 93 324 1.0 3.0 0.00 0.00 0.00 51 1015.3
20260902170009 92 317 0.0 2.0 0.00 0.00 0.00 53 1015.6
20260902164523 91 317 0.0 2.0 0.00 0.00 0.00 58 1015.8
20260902163034 90 317 0.0 2.0 0.00 0.00 0.00 60 1016.0
20260902161545 90 317 0.0 2.0 0.00 0.00 0.00 61 1016.1
20260902160117 89 317 0.0 3.0 0.00 0.00 0.00 61 1016.1
20260902154509 89 317 0.0 2.0 0.00 0.00 0.00 62 1016.2
20260902153021 88 317 0.0 2.0 0.00 0.00 0.00 65 1016.2
20260902151534 87 317 0.0 2.0 0.00 0.00 0.00 68 1016.2
20260902150045 85 317 0.0 1.0 0.00 0.00 0.00 70 1016.3
20260902144556 83 317 0.0 2.0 0.00 0.00 0.00 75 1016.3
20260902143005 81 317 0.0 2.0 0.00 0.00 0.00 78 1016.2
20260902141515 79 317 0.0 2.0 0.00 0.00 0.00 83 1016.2
20260902140035 78 317 0.0 2.0 0.00 0.00 0.00 86 1016.3
20260902134541 77 317 0.0 0.0 0.00 0.00 0.00 88 1016.3
20260902133105 76 318 0.0 0.0 0.00 0.00 0.00 88 1016.3
20260902131607 75 318 0.0 0.0 0.00 0.00 0.00 88 1016.2
20260902130013 75 318 0.0 0.0 0.00 0.00 0.00 87 1016.2
20260902124527 75 318 0.0 0.0 0.00 0.00 0.00 87 1016.1
20260902123047 75 318 0.0 0.0 0.00 0.00 0.00 86 1015.9
20260902121550 75 318 0.0 0.0 0.00 0.00 0.00 86 1015.8
20260902120103 75 318 0.0 0.0 0.00 0.00 0.00 85 1015.5
20260902114513 75 318 0.0 0.0 0.00 0.00 0.00 85 1015.4
20260902113027 75 318 0.0 0.0 0.00 0.00 0.00 84 1015.3
20260902111545 75 318 0.0 0.0 0.00 0.00 0.00 83 1015.3
20260902104503 76 318 0.0 0.0 0.00 0.00 0.00 83 1015.0
20260902103016 76 318 0.0 0.0 0.00 0.00 0.00 82 1014.9
20260902101529 76 318 0.0 0.0 0.00 0.00 0.00 82 1014.8
20260902100041 76 318 0.0 0.0 0.00 0.00 0.00 81 1014.6
20260902094555 77 318 0.0 0.0 0.00 0.00 0.00 81 1014.5
20260902093004 77 318 0.0 0.0 0.00 0.00 0.00 80 1014.5
20260902091518 77 318 0.0 0.0 0.00 0.00 0.00 81 1014.3
20260902090031 77 318 0.0 0.0 0.00 0.00 0.00 80 1014.4
20260902084545 77 318 0.0 0.0 0.00 0.00 0.00 79 1014.4
20260902083106 77 318 0.0 0.0 0.00 0.00 0.00 80 1014.4
20260902081509 77 318 0.0 0.0 0.00 0.00 0.00 80 1014.4
20260902080022 77 318 0.0 0.0 0.00 0.00 0.00 80 1014.4
20260902074538 77 318 0.0 0.0 0.00 0.00 0.00 80 1014.5
20260902073048 77 318 0.0 0.0 0.00 0.00 0.00 80 1014.4
20260902071603 77 318 0.0 0.0 0.00 0.00 0.00 80 1014.4
20260902070012 77 318 0.0 0.0 0.00 0.00 0.00 82 1014.5
20260902064526 77 318 0.0 0.0 0.00 0.00 0.00 81 1014.5
20260902063039 78 318 0.0 0.0 0.00 0.00 0.00 81 1014.5
20260902061610 78 318 0.0 0.0 0.00 0.00 0.00 81 1014.5
20260902060112 78 318 0.0 0.0 0.00 0.00 0.00 80 1014.5
20260902054520 79 318 0.0 0.0 0.00 0.00 0.00 80 1014.6
20260902053029 79 318 0.0 0.0 0.00 0.00 0.00 80 1014.4
20260902051544 79 318 0.0 0.0 0.00 0.00 0.00 79 1014.4